South Haven, MI

1:26 PM EDT on June 28, 2017 (GMT -0400)
South Haven

Weather History for KLWA - September, 2013

Change the Weather History Date:

Wednesday, September 25, 2013

  Actual Average (KBEH) Record (KBEH)
Temperature  
Mean Temperature 58 °F -  
Max Temperature 70 °F 68 °F 86 °F (1986)
Min Temperature 45 °F 45 °F 29 °F (1989)
Degree Days  
Heating Degree Days 8    
Growing Degree Days 8 (Base 50)    
Moisture  
Dew Point 49 °F    
Average Humidity 82    
Maximum Humidity 99    
Minimum Humidity 47    
Precipitation  
Precipitation 0.00 in - - ()
Sea Level Pressure  
Sea Level Pressure 29.98 in    
Wind  
Wind Speed 3 mph (ENE)    
Max Wind Speed 10 mph    
Max Gust Speed -    
Visibility 8 miles    
Events      
Averages and records for this station are not official NWS values.
T = Trace of Precipitation, MM = Missing Value Source: NWS Daily Summary

Daily Weather History Graph

Daily Weather History Graph

Search for Another Location

Airport or City:

Trip Planner

Search our weather history database for the weather conditions in past years. The results will help you decide how hot, cold, wet, or windy it might be!

Date:

Astronomy

Sep. 25, 2013 Rise Set
Actual Time 7:35 AM EDT 7:36 PM EDT
Civil Twilight 7:07 AM EDT 8:04 PM EDT
Nautical Twilight 6:35 AM EDT 8:37 PM EDT
Astronomical Twilight 6:01 AM EDT 9:10 PM EDT
Moon 11:36 PM EDT (9/25) 1:47 PM EDT (9/25)
Length of Visible Light 12h 56m
Length of Day
12h 00m
Waning Gibbous, 64% of the Moon is Illuminated
Sep 25
Waning Gibbous
Sep 26
Last Quarter
Oct 4
New
Oct 11
First Quarter
Oct 18
Full

Hourly Weather History & Observations

Time (EDT) Temp. Windchill Dew Point Humidity Pressure Visibility Wind Dir Wind Speed Gust Speed Precip Events Conditions
12:15 AM 50.7 °F - 47.5 °F 89% 29.97 in 10.0 mi Calm Calm - N/A   Clear
12:35 AM 49.3 °F - 47.3 °F 93% 29.98 in 10.0 mi Calm Calm - N/A   Clear
12:55 AM 48.0 °F - 46.6 °F 95% 29.98 in 10.0 mi Calm Calm - N/A   Clear
1:14 AM 46.2 °F - 44.4 °F 93% 29.98 in 10.0 mi Calm Calm - N/A   Clear
1:35 AM 46.0 °F - 45.1 °F 97% 29.98 in 7.0 mi Calm Calm - N/A   Clear
1:55 AM 46.4 °F - 45.0 °F 95% 29.98 in 10.0 mi Calm Calm - N/A   Clear
2:14 AM 46.2 °F - 44.6 °F 94% 29.98 in 10.0 mi Calm Calm - N/A   Clear
2:35 AM 47.3 °F - 45.1 °F 92% 29.97 in 10.0 mi Calm Calm - N/A   Clear
2:55 AM 46.6 °F - 45.1 °F 95% 29.98 in 10.0 mi Calm Calm - N/A   Clear
3:14 AM 45.9 °F - 44.6 °F 95% 29.98 in 7.0 mi Calm Calm - N/A   Clear
3:35 AM 45.9 °F - 44.8 °F 96% 29.98 in 7.0 mi Calm Calm - N/A   Clear
3:55 AM 45.9 °F - 44.8 °F 96% 29.98 in 7.0 mi Calm Calm - N/A   Clear
4:15 AM 45.1 °F 43.7 °F 44.2 °F 97% 29.98 in 7.0 mi East 3.5 mph - N/A   Clear
4:35 AM 45.5 °F 44.2 °F 44.8 °F 97% 29.97 in 5.0 mi East 3.5 mph - N/A   Clear
4:55 AM 45.5 °F - 44.8 °F 97% 29.97 in 5.0 mi Calm Calm - N/A   Clear
5:15 AM 45.0 °F 43.5 °F 44.2 °F 97% 29.97 in 5.0 mi East 3.5 mph - N/A   Clear
5:35 AM 45.0 °F 42.6 °F 44.6 °F 99% 29.97 in 5.0 mi East 4.6 mph - N/A   Clear
5:54 AM 45.1 °F - 44.4 °F 97% 29.97 in 5.0 mi Calm Calm - N/A   Clear
6:15 AM 45.0 °F 43.5 °F 44.6 °F 99% 29.97 in 5.0 mi East 3.5 mph - N/A   Clear
6:35 AM 45.0 °F 42.6 °F 44.6 °F 99% 29.98 in 5.0 mi East 4.6 mph - N/A   Clear
6:55 AM 45.9 °F 42.9 °F 45.5 °F 99% 29.98 in 5.0 mi East 5.8 mph - N/A   Clear
7:15 AM 45.9 °F 42.9 °F 45.5 °F 99% 29.98 in 4.0 mi East 5.8 mph - N/A   Clear
7:35 AM 45.5 °F 43.2 °F 45.0 °F 98% 29.99 in 2.5 mi East 4.6 mph - N/A   Clear
7:55 AM 45.5 °F 43.2 °F 45.1 °F 99% 29.99 in 2.0 mi East 4.6 mph - N/A   Clear
8:15 AM 46.4 °F 45.2 °F 46.0 °F 99% 29.99 in 2.5 mi East 3.5 mph - N/A   Clear
8:35 AM 48.2 °F - 47.5 °F 97% 29.99 in 3.0 mi ENE 4.6 mph - N/A   Clear
8:55 AM 50.4 °F - 48.9 °F 95% 29.99 in 4.0 mi ENE 4.6 mph - N/A   Clear
9:15 AM 52.3 °F - 50.2 °F 92% 29.99 in 5.0 mi ENE 4.6 mph - N/A   Clear
9:35 AM 54.3 °F - 51.6 °F 91% 29.99 in 5.0 mi East 4.6 mph - N/A   Clear
9:55 AM 55.6 °F - 52.2 °F 88% 30.00 in 7.0 mi East 4.6 mph - N/A   Clear
10:15 AM 58.5 °F - 52.9 °F 82% 30.00 in 10.0 mi East 8.1 mph - N/A   Clear
10:34 AM 59.5 °F - 53.1 °F 79% 30.00 in 10.0 mi ESE 6.9 mph - N/A   Clear
10:55 AM 61.7 °F - 52.7 °F 72% 30.01 in 10.0 mi East 8.1 mph - N/A   Clear
11:15 AM 62.6 °F - 53.1 °F 71% 30.00 in 10.0 mi East 5.8 mph - N/A   Clear
11:34 AM 63.9 °F - 52.7 °F 67% 30.00 in 10.0 mi ESE 8.1 mph - N/A   Scattered Clouds
11:55 AM 64.6 °F - 52.3 °F 64% 30.00 in 10.0 mi SE 9.2 mph - N/A   Scattered Clouds
12:15 PM 64.8 °F - 51.3 °F 62% 29.99 in 10.0 mi ESE 8.1 mph - N/A   Scattered Clouds
12:34 PM 66.0 °F - 51.3 °F 59% 29.99 in 10.0 mi East 6.9 mph - N/A   Clear
12:55 PM 66.6 °F - 50.4 °F 56% 29.99 in 10.0 mi East 8.1 mph - N/A   Scattered Clouds
1:15 PM 67.6 °F - 50.5 °F 54% 29.99 in 10.0 mi SE 3.5 mph - N/A   Scattered Clouds
1:35 PM 67.1 °F - 49.8 °F 54% 29.98 in 10.0 mi ENE 4.6 mph - N/A   Scattered Clouds
1:55 PM 68.4 °F - 48.7 °F 49% 29.98 in 10.0 mi Calm Calm - N/A   Scattered Clouds
2:15 PM 68.9 °F - 50.0 °F 51% 29.97 in 10.0 mi ESE 5.8 mph - N/A   Clear
2:35 PM 68.9 °F - 49.8 °F 51% 29.96 in 10.0 mi East 5.8 mph - N/A   Scattered Clouds
2:55 PM 69.1 °F - 49.5 °F 50% 29.96 in 10.0 mi ENE 3.5 mph - N/A   Scattered Clouds
3:15 PM 69.1 °F - 49.1 °F 49% 29.95 in 10.0 mi East 6.9 mph - N/A   Clear
3:35 PM 69.8 °F - 49.5 °F 48% 29.95 in 10.0 mi East 4.6 mph - N/A   Clear
3:55 PM 70.0 °F - 49.3 °F 48% 29.95 in 10.0 mi ENE 4.6 mph - N/A   Clear
4:15 PM 70.0 °F - 49.5 °F 48% 29.95 in 10.0 mi East 4.6 mph - N/A   Clear
4:35 PM 70.5 °F - 49.1 °F 47% 29.95 in 10.0 mi NE 5.8 mph - N/A   Clear
4:55 PM 68.5 °F - 53.8 °F 59% 29.95 in 10.0 mi NNW 9.2 mph - N/A   Clear
5:14 PM 66.9 °F - 54.5 °F 64% 29.96 in 10.0 mi NW 9.2 mph - N/A   Clear
5:35 PM 66.6 °F - 54.5 °F 65% 29.96 in 10.0 mi NNW 10.4 mph - N/A   Clear
5:55 PM 65.8 °F - 53.8 °F 65% 29.96 in 10.0 mi North 9.2 mph - N/A   Clear
6:14 PM 64.9 °F - 53.6 °F 67% 29.96 in 10.0 mi North 8.1 mph - N/A   Clear
6:35 PM 64.4 °F - 54.0 °F 69% 29.97 in 10.0 mi North 8.1 mph - N/A   Clear
6:55 PM 63.3 °F - 54.1 °F 72% 29.97 in 10.0 mi North 6.9 mph - N/A   Clear
7:14 PM 62.1 °F - 54.1 °F 75% 29.97 in 10.0 mi North 5.8 mph - N/A   Clear
7:35 PM 60.6 °F - 54.1 °F 79% 29.97 in 10.0 mi North 5.8 mph - N/A   Clear
7:54 PM 59.4 °F - 54.0 °F 82% 29.97 in 10.0 mi Calm Calm - N/A   Clear
8:15 PM 58.3 °F - 54.5 °F 87% 29.97 in 10.0 mi Calm Calm - N/A   Clear
8:35 PM 57.4 °F - 54.7 °F 91% 29.98 in 10.0 mi Calm Calm - N/A   Clear
8:54 PM 56.8 °F - 54.9 °F 93% 29.97 in 10.0 mi Calm Calm - N/A   Clear
9:15 PM 56.1 °F - 54.5 °F 94% 29.97 in 10.0 mi Calm Calm - N/A   Clear
9:35 PM 53.1 °F - 51.8 °F 95% 29.98 in 7.0 mi Calm Calm - N/A   Clear
9:55 PM 53.1 °F - 52.3 °F 97% 29.97 in 5.0 mi Calm Calm - N/A   Clear
10:15 PM 52.2 °F - 51.8 °F 99% 29.98 in 3.0 mi Calm Calm - N/A   Clear
10:35 PM 51.1 °F - 50.9 °F 99% 29.98 in 4.0 mi Calm Calm - N/A   Clear
10:55 PM 50.4 °F - 50.0 °F 99% 29.98 in 5.0 mi Calm Calm - N/A   Clear
11:15 PM 50.4 °F - 50.0 °F 99% 29.99 in 5.0 mi Calm Calm - N/A   Clear
11:35 PM 48.6 °F - 48.4 °F 99% 29.99 in 4.0 mi Calm Calm - N/A   Clear
11:55 PM 48.4 °F - 47.8 °F 98% 29.99 in 4.0 mi Calm Calm - N/A   Clear